Regional Weather Roundup
Issued by NWS

Home | Current Version | Previous Version | Text Only | Print | Product List | Glossary Off
Versions: 1 2 3 4 5 6 7 8 9 10 11 12 13 14 15 16 17 18 19 20 21 22 23 24 25 26 27 28 29 30 31 32 33 34 35 36 37 38 39 40 41 42 43 44 45 46 47 48 49 50

000
ASUS43 KBIS 260610
RWRND

NORTH DAKOTA REGIONAL WEATHER ROUNDUP
NATIONAL WEATHER SERVICE BISMARCK ND
100 AM CDT WED JUL 26 2017

NOTE: "FAIR" INDICATES FEW OR NO CLOUDS BELOW 12,000 FEET WITH NO
SIGNIFICANT WEATHER AND/OR OBSTRUCTIONS TO VISIBILITY.


NDZ001>003-009>011-017-260700-
NORTHWEST NORTH DAKOTA

CITY           SKY/WX    TMP DP  RH WIND       PRES   REMARKS
WILLISTON      PTCLDY    65  47  52 NE3       30.08R
6HR MIN TEMP:  64; 6HR MAX TEMP:  88;

MINOT          CLOUDY    64  55  72 NW6       30.04R
MINOT AFB      CLOUDY    60  54  80 NW5       30.04R
$$

NDZ018>021-031>035-040>046-260700-
SOUTHWEST NORTH DAKOTA

CITY           SKY/WX    TMP DP  RH WIND       PRES   REMARKS
BISMARCK       CLOUDY    68  54  60 E6        30.06R
6HR MIN TEMP:  68; 6HR MAX TEMP:  86;

DICKINSON      CLOUDY    68  49  50 E7        30.08R
GARRISON         N/A     64  55  72 CALM      30.06R
6HR MIN TEMP:  64; 6HR MAX TEMP:  85;

HETTINGER ARPT CLOUDY    68  52  56 CALM      30.11S
$$

NDZ004>008-012>016-024-026-027-054-260700-
NORTHEAST NORTH DAKOTA

CITY           SKY/WX    TMP DP  RH WIND       PRES   REMARKS
GRAND FORKS    CLOUDY    64  60  87 SW8       29.99R
GRND FRKS AFB  CLOUDY    61  58  90 W6        30.00R
DEVILS LAKE    CLOUDY    70  64  81 SW5       30.04R
$$

NDZ022-023-025-028>030-036>039-047>053-260700-
SOUTHEAST NORTH DAKOTA

CITY           SKY/WX    TMP DP  RH WIND       PRES   REMARKS
FARGO          CLEAR     64  60  87 N6        30.00F
6HR MIN TEMP:  64; 6HR MAX TEMP:  81;

JAMESTOWN      CLOUDY    64  57  78 CALM      30.04F
$$





USA.gov is the U.S. government's official web portal to all federal, state and local government web resources and services.